Location: Martz Observatory
(42.0083°N, 79.0667°W)
Time: 12:57:50
(UTC-04:00)

Cosmos 220 Rocket - Pass Details

Date: 26 May 2018
Orbit: 576 x 617 km, 74.0° (Epoch: 16 October)

Event Time Altitude Azimuth Distance (km) Brightness Sun altitude
Exits shadow 04:23:53 18° 201° (SSW) 1,512 5.5 -13.0°
Maximum altitude 04:27:08 85° 290° (WNW) 606 4.0 -12.6°
Drops below altitude 10° 04:31:28 10° 19° (NNE) 1,933 7.6 -12.0°
Sets 04:33:41 0° 20° (NNE) 2,831 8.7 -11.7°
